User: anonymous   Login
Location: Unspecified
(0.0000°N, 0.0000°E)
Time: 01:31:18
(UTC+01:00)
Language:

Timation 2 Rocket - Orbit

View from above orbital plane
View from above orbital plane
View from above satellite
View from above satellite

Ground track
Ground track

The orbit data is extracted from the following two-line orbital elements,

1 04159U 69082AB  15057.53457178  .00000047  00000-0  10118-3 0  9997
2 04159 069.9612 089.0199 0113071 056.2917 304.8892 13.72282978272614
Epoch (UTC): 26 February 2015 12:49:47
Eccentricity: 0.0113071
inclination: 69.9612°
perigee height: 908 km
apogee height: 1075 km
right ascension of ascending node: 89.0199°
argument of perigee: 56.2917°
revolutions per day: 13.72282978
mean anomaly at epoch: 304.8892°
orbit number at epoch: 27261

The dashed part of the orbit path shows where the satellite is in the earth's shadow,  

DLR